Location: Anglesey
(53.1800°N, 4.2200°W)
Time: 09:54:46
(UTC+01:00)

Envisat - Pass Details

Date: 13 October 2017
Orbit: 764 x 766 km, 98.2° (Epoch: 19 October)

Event Time Altitude Azimuth Distance (km) Brightness Sun altitude
Exits shadow 19:16:07 - 105° (ESE) 2,390 5.0 -8.4°
Reaches altitude 10° 19:16:24 10° 103° (ESE) 2,306 4.9 -8.4°
Maximum altitude 19:20:09 21° 55° (NE) 1,658 4.3 -9.0°
Drops below altitude 10° 19:23:56 10° 7° (N) 2,316 5.4 -9.6°
Sets 19:26:43 0° 353° (N) 3,246 6.3 -10.0°
